YAOGAN 9C

导读 | 星芒AI

“遥感九号03星”(YAOGAN 9C)是中国研制的一颗光学遥感卫星,主要用于国土普查、环境监测、资源调查等领域。该卫星于2020年9月27日由长征四号乙运载火箭成功发射,运行在太阳同步轨道,具备高分辨率成像能力。作为遥感九号系列的一部分,YAOGAN 9C 提高了中国在民用和商用遥感数据获取方面的能力,服务于农业、城市规划、防灾减灾等多个行业,具有重要的应用价值和战略意义。

基本信息
目录编号:
36415
目录名称:
YAOGAN 9C
国际标识:
2010-009C
轨道中心:
EARTH
卫星名称:
YAOGAN 9C
卫星全名:
--
卫星状态:
在轨 (已飞行5717 天)
发射日期:
2010-03-05 UTC
国别 :
中国 (CN)
星等 :
--
轨道信息
数据来源 国际轨道数据
星历时间: 2025-10-28T21:09:50+0800
17小时前
查看轨道信息
半长轴: 7466.472km
偏心率: 0.0519077
轨道倾角: 63.368°
近地点辐角 19.445°
升交点赤经 237.630°
平近点角 342.559°
近地点: 700.769km
远地点: 1475.905km
周期: 107.012分钟
每日圈数: 13.456424
详细信息
使用方式:
暂无
2D轨道图
3D轨道图
轨道高度分析图
轨道倾角分析图
轨道综合分析图
查看轨道综合分析图